Regional Weather Roundup
Issued by NWS Green Bay, WI

Home | Current Version | Previous Version | Graphics & Text | Print | Product List | Glossary Off
Versions: 1 2 3 4 5 6 7 8 9 10 11 12 13 14 15 16 17 18 19 20 21 22 23 24 25 26 27 28 29 30 31 32 33 34 35 36 37 38 39 40 41 42 43 44 45 46 47 48 49 50

000
ASUS43 KGRB 280859
RWRGRB

NORTH-CENTRAL AND NORTHEAST WISCONSIN REGIONAL WEATHER ROUNDUP
NATIONAL WEATHER SERVICE GREEN BAY WI
400 AM CDT SAT MAR 28 2015

WIZ005-009-010>012-018-019-281000-
NORTH CENTRAL WISCONSIN

CITY           SKY/WX    TMP DP  RH WIND       PRES   REMARKS
IRONWOOD       CLEAR      5   3  92 CALM      30.16S
MANITOWISH WTR NOT AVBL
ARBOR VITAE    NOT AVBL
EAGLE RIVER    NOT AVBL
LAND O LAKES   NOT AVBL
RHINELANDER    CLEAR      9   2  73 CALM      30.16S
PHILLIPS       CLEAR     12   7  80 CALM      30.16S
ANTIGO         NOT AVBL
TOMAHAWK       NOT AVBL
MERRILL        NOT AVBL
$$

WIZ013-073-281000-
NORTHEAST WISCONSIN

CITY           SKY/WX    TMP DP  RH WIND       PRES   REMARKS
IRON MOUNTAIN  CLEAR      4  -3  73 CALM      30.20S
MARINETTE      CLEAR     10   7  85 NW3       30.25S
$$

WIZ017-030-035>037-045-281000-
CENTRAL WISCONSIN

CITY           SKY/WX    TMP DP  RH WIND       PRES   REMARKS
MEDFORD        NOT AVBL
WAUSAU         CLEAR     15   8  73 SE3       30.19R
MOSINEE        CLEAR     16  10  79 CALM      30.21R
MARSHFIELD     CLEAR     18  10  71 NE6       30.19R WCI  10
WISC RAPIDS    CLEAR     13   6  74 CALM      30.22R
STEVENS POINT  NOT AVBL
WAUPACA        CLEAR     18  13  81 CALM      30.24S
SHAWANO        NOT AVBL
CLINTONVILLE   CLEAR     18  12  79 CALM      30.24S
$$

WIZ038-039-048-051-281000-
FOX VALLEY

CITY           SKY/WX    TMP DP  RH WIND       PRES   REMARKS
NWS GREEN BAY  CLEAR     19  12  74 CALM      30.25S
APPLETON       NOT AVBL
OSHKOSH        CLEAR     16  10  77 CALM      30.24R
FOND DU LAC    CLEAR     14  10  84 CALM      30.24R
$$

WIZ022-050-052-281000-
EAST CENTRAL WISCONSIN

CITY           SKY/WX    TMP DP  RH WIND       PRES   REMARKS
STURGEON BAY   CLEAR     16   0  48 N3        30.27R
MANITOWOC      NOT AVBL
SHEBOYGAN      CLEAR     16  11  80 N5        30.23S WCI   9
$$

LMZ563-521-522-541>543-281000-
LAKESHORE

STATION/POSITION TIME  TEMP    WIND        PRES    VSBY  WAVE
                       AIR SEA DIR/SP/G                  HT/PER
                 (UTC) (F)     (DEG/KT/KT) (MB)    (MI)  (FT/S)
SHEBOYGAN LKSHOR 0800   25      30/  4/  6 1025.2F
KEWAUNEE LKSHORE 0800   17     280/  3/  5 1023.4R
NORTHPORT PIER   0800   16     300/  4/  7 1024.7S
SISTER BAY LKSHO 0800   11        CALM       N/A
CHAMBERS ISLAND  0800   11        CALM     1024.7S
MENOMINEE LKSHOR 0800   15     320/  5     1025.1F
$$


USA.gov is the U.S. government's official web portal to all federal, state and local government web resources and services.